Regional Weather Roundup
Issued by NWS Goodland, KS

Home | Current Version | Previous Version | Text Only | Print | Product List | Glossary Off
Versions: 1 2 3 4 5 6 7 8 9 10 11 12 13 14 15 16 17 18 19 20 21 22 23 24 25 26 27 28 29 30 31 32 33 34 35 36 37 38 39 40 41 42 43 44 45 46 47 48 49 50

000
ASUS43 KGLD 290959
RWRGLD

GOODLAND FORECAST AREA HOURLY WEATHER ROUNDUP
NATIONAL WEATHER SERVICE GOODLAND KS
400 AM MDT SAT AUG 29 2015

...OFFICIAL OBSERVATIONS...

CITY           SKY/WX    TMP DP  RH WIND       PRES   REMARKS
GOODLAND KS    CLEAR     57  55  93 W7        30.17S
HILL CITY KS   CLEAR     59  57  93 CALM      30.08S
IMPERIAL NEB   CLEAR     57  54  89 W5        30.15S
MCCOOK NEB     CLEAR     57  55  93 MISG      30.11S
AKRON CO       CLEAR     61  48  62 S10       30.22S
BURLINGTON CO  CLEAR     54  50  86 SW7       30.21S
LIMON CO       CLEAR     46  43  89 NW6       30.29S
$$

...UNOFFICIAL OBSERVATIONS...

CITY           SKY/WX    TMP DP  RH WIND       PRES   REMARKS
GOVE KS          N/A     57  32  39 MISG        N/A
LENORA KS        N/A     60  32  34 MISG        N/A
SHARON SPRINGS   N/A     56  53  90 SW5         N/A
YUMA CO          N/A     54  48  81 CALM        N/A
$$



USA.gov is the U.S. government's official web portal to all federal, state and local government web resources and services.